Regional Weather Roundup
Issued by NWS

Home | Current Version | Previous Version | Graphics & Text | Print | Product List | Glossary Off
Versions: 1 2 3 4 5 6 7 8 9 10 11 12 13 14 15 16 17 18 19 20 21 22 23 24 25 26 27 28 29 30 31 32 33 34 35 36 37 38 39 40 41 42 43 44 45 46 47 48 49 50

000
ASUS43 KTOP 200808
RWRKS

WEATHER ROUNDUP FOR KANSAS
NATIONAL WEATHER SERVICE GOODLAND KS
200 AM CST SAT DEC 20 2014

NOTE:  "FAIR" INDICATES FEW OR NO CLOUDS BELOW 12,000 FEET WITH NO
SIGNIFICANT WEATHER AND/OR OBSTRUCTIONS TO VISIBILITY.

KSZ001>006-013>018-027>032-041>047-200900-
NORTHWEST KANSAS

CITY           SKY/WX    TMP DP  RH WIND       PRES   REMARKS
GOODLAND       PTCLDY    31  28  89 W10       30.02F WCI  22
HAYS           PTCLDY    30  21  69 CALM      30.07S
HILL CITY      PTCLDY    30  26  85 SW6       30.05F
RUSSELL        PTCLDY    32  31  96 S12       30.06F WCI  23
$$

KSZ061>065-074>080-084>089-200900-
SOUTHWEST KANSAS

CITY           SKY/WX    TMP DP  RH WIND       PRES   REMARKS
DODGE CITY     CLEAR     32  29  88 SW14      30.08F FOG     WCI  22
ELKHART          N/A    N/A N/A N/A MISG        N/A
GARDEN CITY    CLEAR     26  26 100 W3        30.07S FOG
GREAT BEND     CLEAR     32  27  80 SW10      30.11S WCI  24
LIBERAL        CLEAR     28  25  86 SW6       30.11F
PRATT          FOG       30  30 100 S6        30.12F VSB 1/2
$$

KSZ066>073-081>083-090>101-200900-
SOUTHEAST KANSAS

CITY           SKY/WX    TMP DP  RH WIND       PRES   REMARKS
CHANUTE        CLOUDY    35  34  96 CALM      30.22R FOG
COFFEYVILLE    CLOUDY    35  34  96 CALM      30.23R FOG
HUTCHINSON     CLEAR     33  30  88 S9        30.14F FOG
MEDICINE LODGE   N/A     34  34 100 S6        30.14F
NEWTON         PTCLDY    34  28  80 S10       30.15F WCI  26
PARSONS        CLOUDY    35  35 100 CALM      30.23R FOG
WICHITA INTL   MOCLDY    36  33  89 S8        30.16F
WICHITA JABRA  CLOUDY    36  33  89 S7        30.16F
WICHITA MCCONL CLOUDY    37  34  88 S7        30.17F
WINFIELD       CLOUDY    37  35  92 S5        30.19F
$$

KSZ007>012-019>026-033>040-048>060-102>105-200900-
NORTHEAST KANSAS

CITY           SKY/WX    TMP DP  RH WIND       PRES   REMARKS
CONCORDIA      CLEAR     29  29 100 S6        30.08S FOG
EMPORIA        CLOUDY    33  31  92 S8        30.18F
LAWRENCE       CLOUDY    33  29  85 SW8       30.20F
MANHATTAN      CLEAR     33  30  88 S5        30.14S
MARYSVILLE     CLEAR     32  30  93 S9        30.10S FOG
OLATHE IND     CLOUDY    32  31  96 S9        30.19F FOG
OLATHE EXE     CLOUDY    33  32  96 S7        30.18F FOG
SALINA         CLEAR     34  31  88 S12       30.11F WCI  25
TOPEKA BILLARD CLOUDY    34  30  85 SE6       30.18F
TOPEKA FORBES  CLOUDY    34  30  85 S6        30.17F
$$



USA.gov is the U.S. government's official web portal to all federal, state and local government web resources and services.